Station Historical Data
Daily Summary for January 26, 2012 Units:  Metric    English   Both
« Previous Day
Next Day »
Daily Weekly Monthly Yearly Custom
  High: Low: Average:
Temperature: 17.1 °C 6.8 °C 14.8 °C
Dew Point: 15.1 °C 6.2 °C 13.6 °C
Humidity: 96% 74% 93%
Wind Speed: 30.6km/h 3.2km/h 12.7km/h
Wind Gust: 30.6km/h - -
Wind- - SSE
Pressure: 1013.4 hPa 1001.6 hPa -
Precipitation: 21.34 mm    
Historical Graphs
 
 
Tabular Data for January 26, 2012
Time Temperature Dew Point Pressure Wind Wind Speed Wind Gust Humidity Rainfall Rate (Hourly) Conditions
00:00 17.1 °C 12.4 °C 1013.4 hPa ESE 11.3 km/h 22.5 km/h 74% 0 mm
00:02 17.1 °C 12.4 °C 1013.4 hPa East 20.9 km/h 24.1 km/h 74% 0 mm
00:07 17.1 °C 12.7 °C 1013.1 hPa SE 16.1 km/h 16.1 km/h 75% 0 mm
00:12 17.1 °C 12.7 °C 1013.1 hPa SE 16.1 km/h 20.9 km/h 75% 0 mm
00:17 17.1 °C 12.7 °C 1013.4 hPa SE 12.9 km/h 24.1 km/h 75% 0 mm
00:22 17.1 °C 12.7 °C 1013.1 hPa ESE 20.9 km/h 22.5 km/h 75% 0 mm
00:27 17.1 °C 12.6 °C 1013.1 hPa SE 19.3 km/h 20.9 km/h 75% 0 mm
00:32 17.1 °C 12.8 °C 1013.1 hPa SE 12.9 km/h 19.3 km/h 76% 0 mm
00:37 16.9 °C 12.7 °C 1013.1 hPa SE 14.5 km/h 17.7 km/h 76% 0 mm
00:42 16.9 °C 12.9 °C 1013.1 hPa SE 14.5 km/h 22.5 km/h 77% 0 mm
00:47 16.9 °C 12.9 °C 1013.1 hPa SE 14.5 km/h 17.7 km/h 77% 0 mm
00:52 16.9 °C 12.8 °C 1012.8 hPa SE 14.5 km/h 19.3 km/h 77% 0 mm
00:57 16.8 °C 12.8 °C 1012.8 hPa ESE 14.5 km/h 16.1 km/h 77% 0 mm
01:02 16.8 °C 12.8 °C 1012.8 hPa SE 8 km/h 16.1 km/h 77% 0 mm
01:07 16.8 °C 13 °C 1012.8 hPa SE 17.7 km/h 22.5 km/h 78% 0 mm
01:12 16.8 °C 12.9 °C 1012.8 hPa SE 12.9 km/h 16.1 km/h 78% 0 mm
01:17 16.8 °C 13.1 °C 1012.8 hPa SE 11.3 km/h 20.9 km/h 79% 0 mm
01:22 16.8 °C 13.1 °C 1012.8 hPa ESE 14.5 km/h 22.5 km/h 79% 0 mm
01:27 16.7 °C 13.1 °C 1012.8 hPa ESE 11.3 km/h 22.5 km/h 79% 0 mm
01:32 16.7 °C 13.3 °C 1012.4 hPa ESE 14.5 km/h 17.7 km/h 80% 0 mm
01:37 16.7 °C 13.3 °C 1011.7 hPa ESE 17.7 km/h 24.1 km/h 80% 0 mm
01:42 16.7 °C 13.2 °C 1012.1 hPa SSE 19.3 km/h 24.1 km/h 80% 0 mm
01:47 16.7 °C 13.4 °C 1012.1 hPa SE 16.1 km/h 24.1 km/h 81% 0 mm
01:52 16.7 °C 13.4 °C 1012.1 hPa SE 17.7 km/h 22.5 km/h 81% 0 mm
01:57 16.7 °C 13.4 °C 1012.1 hPa SE 14.5 km/h 20.9 km/h 81% 0 mm
02:02 16.7 °C 13.4 °C 1012.1 hPa SE 25.7 km/h 25.7 km/h 81% 0 mm
02:07 16.8 °C 13.5 °C 1012.1 hPa ESE 16.1 km/h 24.1 km/h 81% 0 mm
02:12 16.7 °C 13.8 °C 1011.7 hPa ESE 17.7 km/h 24.1 km/h 83% 0 mm
02:18 16.4 °C 13.7 °C 1012.1 hPa SE 17.7 km/h 24.1 km/h 84% 0 mm
02:23 16.2 °C 13.7 °C 1011.7 hPa SE 19.3 km/h 20.9 km/h 85% 0 mm
02:28 16.1 °C 13.7 °C 1011.7 hPa ESE 20.9 km/h 20.9 km/h 86% 2.79 mm
02:33 16.1 °C 13.9 °C 1011.7 hPa SE 12.9 km/h 22.5 km/h 87% 1.78 mm
02:38 16 °C 13.8 °C 1011.7 hPa SE 12.9 km/h 22.5 km/h 87% 1.27 mm
02:43 15.9 °C 13.8 °C 1011.7 hPa SSE 11.3 km/h 19.3 km/h 87% 0 mm
02:48 15.9 °C 13.9 °C 1011.7 hPa SE 14.5 km/h 20.9 km/h 88% 0 mm
02:53 15.8 °C 13.8 °C 1011.7 hPa SE 14.5 km/h 19.3 km/h 88% 0 mm
02:58 15.7 °C 13.9 °C 1011.4 hPa SE 12.9 km/h 17.7 km/h 89% 0 mm
03:03 15.6 °C 13.9 °C 1011.4 hPa ESE 17.7 km/h 19.3 km/h 90% 0 mm
03:08 15.4 °C 13.8 °C 1011.4 hPa ESE 16.1 km/h 17.7 km/h 90% 0 mm
03:13 15.3 °C 13.7 °C 1011.4 hPa SE 14.5 km/h 17.7 km/h 90% 0 mm
03:18 15.2 °C 13.8 °C 1011.4 hPa ESE 14.5 km/h 20.9 km/h 91% 0 mm
03:23 15.2 °C 13.7 °C 1011.1 hPa ESE 14.5 km/h 19.3 km/h 91% 0 mm
03:28 15.2 °C 13.8 °C 1011.1 hPa SE 12.9 km/h 19.3 km/h 91% 0 mm
03:33 15.2 °C 13.9 °C 1011.1 hPa SE 14.5 km/h 24.1 km/h 92% 0 mm
03:38 15.2 °C 13.9 °C 1010.7 hPa SE 17.7 km/h 29 km/h 92% 0 mm
03:43 15.2 °C 13.9 °C 1010.7 hPa ESE 17.7 km/h 27.4 km/h 92% 0 mm
03:48 15.2 °C 14.1 °C 1010.7 hPa SE 16.1 km/h 25.7 km/h 93% 0 mm
03:53 15.2 °C 14.1 °C 1010.4 hPa SE 14.5 km/h 17.7 km/h 93% 0 mm
03:58 15.2 °C 14.1 °C 1010.7 hPa ESE 12.9 km/h 22.5 km/h 93% 0 mm
04:03 15.2 °C 14.1 °C 1010.7 hPa SE 14.5 km/h 16.1 km/h 93% 0 mm
04:08 15.3 °C 14.2 °C 1010.7 hPa SE 9.7 km/h 12.9 km/h 93% 0 mm
04:13 15.3 °C 14.2 °C 1010.7 hPa ESE 16.1 km/h 17.7 km/h 93% 0 mm
04:18 15.3 °C 14.2 °C 1010.7 hPa SSE 16.1 km/h 16.1 km/h 93% 0 mm
04:23 15.3 °C 14.2 °C 1010.7 hPa ESE 17.7 km/h 19.3 km/h 93% 0 mm
04:28 15.3 °C 14.2 °C 1010.7 hPa SE 9.7 km/h 12.9 km/h 93% 0 mm
04:33 15.3 °C 14.2 °C 1010.7 hPa SSW 14.5 km/h 14.5 km/h 93% 0 mm
04:38 15.3 °C 14.2 °C 1011.1 hPa SSE 8 km/h 11.3 km/h 93% 0 mm
04:43 15.4 °C 14.3 °C 1010.7 hPa ESE 9.7 km/h 25.7 km/h 93% 0 mm
04:48 15.4 °C 14.3 °C 1010.7 hPa ESE 14.5 km/h 19.3 km/h 93% 0 mm
04:53 15.4 °C 14.3 °C 1010.7 hPa SSE 11.3 km/h 19.3 km/h 93% 0 mm
04:58 15.5 °C 14.4 °C 1011.1 hPa SSE 9.7 km/h 17.7 km/h 93% 0 mm
05:03 15.5 °C 14.6 °C 1011.1 hPa SSE 14.5 km/h 19.3 km/h 94% 0 mm
05:08 15.6 °C 14.6 °C 1011.1 hPa SSE 8 km/h 16.1 km/h 94% 0 mm
05:13 15.6 °C 14.7 °C 1011.1 hPa SE 4.8 km/h 11.3 km/h 94% 0 mm
05:18 15.6 °C 14.7 °C 1011.1 hPa SSE 11.3 km/h 11.3 km/h 94% 0 mm
05:23 15.7 °C 14.7 °C 1011.1 hPa SE 8 km/h 14.5 km/h 94% 0 mm
05:28 15.8 °C 14.8 °C 1011.1 hPa SE 9.7 km/h 17.7 km/h 94% 0 mm
05:33 15.8 °C 14.9 °C 1011.1 hPa ESE 9.7 km/h 14.5 km/h 94% 0 mm
05:38 15.9 °C 14.9 °C 1011.1 hPa SE 11.3 km/h 14.5 km/h 94% 0 mm
05:43 15.9 °C 14.9 °C 1011.1 hPa SSE 8 km/h 12.9 km/h 94% 0 mm
05:48 15.9 °C 14.9 °C 1010.7 hPa SE 11.3 km/h 12.9 km/h 94% 0 mm
05:53 15.9 °C 14.9 °C 1010.7 hPa ESE 11.3 km/h 17.7 km/h 94% 0 mm
05:58 15.9 °C 14.9 °C 1010.7 hPa SSW 9.7 km/h 12.9 km/h 94% 0 mm
06:04 15.8 °C 14.9 °C 1011.1 hPa SSE 11.3 km/h 12.9 km/h 94% 0 mm
06:08 15.9 °C 14.9 °C 1011.1 hPa SE 8 km/h 17.7 km/h 94% 0 mm
06:14 15.9 °C 15 °C 1011.1 hPa SE 11.3 km/h 14.5 km/h 94% 0 mm
06:19 15.9 °C 15 °C 1011.1 hPa SSW 4.8 km/h 12.9 km/h 94% 0 mm
06:24 15.9 °C 15 °C 1011.4 hPa South 22.5 km/h 22.5 km/h 94% 0 mm
06:29 16 °C 15.1 °C 1011.4 hPa South 12.9 km/h 17.7 km/h 94% 0 mm
06:34 16.1 °C 15.1 °C 1011.7 hPa SSW 6.4 km/h 14.5 km/h 94% 0 mm
06:38 16.1 °C 15.1 °C 1011.7 hPa South 8 km/h 12.9 km/h 94% 0 mm
06:43 16 °C 15.1 °C 1011.7 hPa South 11.3 km/h 12.9 km/h 94% 0 mm
06:48 16 °C 15.1 °C 1011.4 hPa South 9.7 km/h 14.5 km/h 94% 0 mm
06:54 16 °C 15.1 °C 1011.4 hPa SE 6.4 km/h 14.5 km/h 94% 0 mm
06:59 16 °C 15.1 °C 1011.4 hPa South 8 km/h 14.5 km/h 94% 0 mm
07:04 16 °C 15.1 °C 1011.4 hPa South 11.3 km/h 14.5 km/h 94% 0 mm
07:09 16 °C 15.1 °C 1011.4 hPa SE 16.1 km/h 17.7 km/h 94% 0 mm
07:14 16 °C 15.1 °C 1011.7 hPa SSE 14.5 km/h 16.1 km/h 94% 0 mm
07:19 15.9 °C 15 °C 1011.4 hPa South 11.3 km/h 19.3 km/h 94% 0 mm
07:24 15.9 °C 15 °C 1011.4 hPa SSE 6.4 km/h 17.7 km/h 94% 1.27 mm
07:29 15.9 °C 14.9 °C 1011.1 hPa SE 8 km/h 16.1 km/h 94% 1.78 mm
07:34 15.8 °C 14.9 °C 1011.1 hPa SSE 19.3 km/h 19.3 km/h 94% 1.78 mm
07:39 15.8 °C 15.1 °C 1011.4 hPa SE 8 km/h 16.1 km/h 95% 2.54 mm
07:44 15.8 °C 15 °C 1011.1 hPa SSE 9.7 km/h 17.7 km/h 95% 1.52 mm
07:49 15.7 °C 14.9 °C 1011.1 hPa SSE 19.3 km/h 24.1 km/h 95% 1.02 mm
07:54 15.7 °C 14.9 °C 1011.7 hPa SSE 11.3 km/h 22.5 km/h 95% 0 mm
07:59 15.7 °C 14.9 °C 1011.4 hPa SE 11.3 km/h 20.9 km/h 95% 0 mm
08:04 15.6 °C 14.8 °C 1011.4 hPa SE 12.9 km/h 22.5 km/h 95% 0 mm
08:09 15.6 °C 14.8 °C 1011.4 hPa SSE 12.9 km/h 20.9 km/h 95% 0 mm
08:14 15.6 °C 14.8 °C 1011.4 hPa SE 11.3 km/h 20.9 km/h 95% 0 mm
08:19 15.5 °C 14.6 °C 1011.4 hPa SE 9.7 km/h 17.7 km/h 94% 0 mm
08:24 15.5 °C 14.7 °C 1011.4 hPa SE 16.1 km/h 17.7 km/h 95% 0 mm
08:29 15.4 °C 14.7 °C 1011.4 hPa South 8 km/h 20.9 km/h 95% 1.78 mm
08:34 15.4 °C 14.7 °C 1011.7 hPa SE 12.9 km/h 24.1 km/h 95% 1.78 mm
08:39 15.4 °C 14.6 °C 1011.4 hPa SE 17.7 km/h 19.3 km/h 95% 2.54 mm
08:44 15.4 °C 14.6 °C 1011.1 hPa SSW 8 km/h 16.1 km/h 95% 2.54 mm
08:49 15.3 °C 14.6 °C 1010.7 hPa SE 12.9 km/h 12.9 km/h 95% 2.79 mm
08:54 15.3 °C 14.6 °C 1011.1 hPa SSW 3.2 km/h 14.5 km/h 95% 1.52 mm
08:59 15.3 °C 14.6 °C 1010.7 hPa SE 8 km/h 11.3 km/h 95% 1.02 mm
09:04 15.3 °C 14.6 °C 1010.7 hPa SSE 6.4 km/h 11.3 km/h 95% 0 mm
09:09 15.3 °C 14.5 °C 1011.1 hPa SSW 11.3 km/h 11.3 km/h 95% 0 mm
09:14 15.3 °C 14.5 °C 1011.1 hPa SSE 12.9 km/h 16.1 km/h 95% 0 mm
09:19 15.3 °C 14.6 °C 1010.7 hPa SSE 12.9 km/h 16.1 km/h 95% 0 mm
09:24 15.3 °C 14.4 °C 1010.7 hPa SE 6.4 km/h 19.3 km/h 94% 0 mm
09:29 15.3 °C 14.4 °C 1010.7 hPa SE 9.7 km/h 22.5 km/h 94% 0 mm
09:34 15.3 °C 14.4 °C 1010.7 hPa SSE 9.7 km/h 16.1 km/h 94% 0 mm
09:39 15.3 °C 14.4 °C 1010.7 hPa SE 6.4 km/h 14.5 km/h 94% 0 mm
09:44 15.3 °C 14.4 °C 1010.7 hPa SE 9.7 km/h 12.9 km/h 94% 0 mm
09:49 15.3 °C 14.5 °C 1010.7 hPa SSE 11.3 km/h 12.9 km/h 95% 0 mm
09:54 15.3 °C 14.5 °C 1010.7 hPa SSE 11.3 km/h 14.5 km/h 95% 0 mm
09:59 15.2 °C 14.4 °C 1010.7 hPa ESE 9.7 km/h 16.1 km/h 95% 0 mm
10:04 15.2 °C 14.4 °C 1010.7 hPa SE 11.3 km/h 14.5 km/h 95% 1.27 mm
10:09 15.2 °C 14.4 °C 1010.7 hPa SE 11.3 km/h 14.5 km/h 95% 1.27 mm
10:14 15.2 °C 14.4 °C 1010.4 hPa SE 17.7 km/h 17.7 km/h 95% 1.27 mm
10:19 15.2 °C 14.4 °C 1010.4 hPa SE 6.4 km/h 14.5 km/h 95% 1.02 mm
10:24 15.1 °C 14.3 °C 1010.4 hPa SE 12.9 km/h 17.7 km/h 95% 0 mm
10:29 15.1 °C 14.3 °C 1010.7 hPa SE 11.3 km/h 11.3 km/h 95% 7.11 mm
10:35 15.1 °C 14.3 °C 1010.7 hPa SE 6.4 km/h 11.3 km/h 95% 5.08 mm
10:40 15.1 °C 14.3 °C 1010.4 hPa SE 9.7 km/h 14.5 km/h 95% 4.83 mm
10:45 15.1 °C 14.3 °C 1010.4 hPa SE 11.3 km/h 12.9 km/h 95% 6.6 mm
10:50 15.1 °C 14.3 °C 1010 hPa SE 8 km/h 12.9 km/h 95% 6.86 mm
10:55 15 °C 14.2 °C 1010 hPa ESE 9.7 km/h 14.5 km/h 95% 6.1 mm
11:00 15 °C 14.2 °C 1010 hPa SE 6.4 km/h 17.7 km/h 95% 5.59 mm
11:05 15 °C 14.2 °C 1009.7 hPa ESE 11.3 km/h 16.1 km/h 95% 3.3 mm
11:10 15 °C 14.2 °C 1009.7 hPa SE 11.3 km/h 14.5 km/h 95% 3.05 mm
11:15 15.1 °C 14.3 °C 1009.7 hPa SE 8 km/h 17.7 km/h 95% 1.52 mm
11:20 15.1 °C 14.3 °C 1009.7 hPa SE 17.7 km/h 19.3 km/h 95% 1.02 mm
11:25 15.1 °C 14.3 °C 1009.7 hPa SE 11.3 km/h 14.5 km/h 95% 1.02 mm
11:30 15.1 °C 14.3 °C 1009.7 hPa ESE 8 km/h 12.9 km/h 95% 1.02 mm
11:35 15 °C 14.2 °C 1009.7 hPa SE 8 km/h 16.1 km/h 95% 1.02 mm
11:40 15 °C 14.2 °C 1009.7 hPa SSE 4.8 km/h 14.5 km/h 95% 3.05 mm
11:45 15 °C 14.2 °C 1009.7 hPa SSE 8 km/h 11.3 km/h 95% 3.81 mm
11:50 15 °C 14.2 °C 1009.7 hPa SW 6.4 km/h 14.5 km/h 95% 4.83 mm
11:55 15 °C 14.2 °C 1009.4 hPa SE 8 km/h 16.1 km/h 95% 5.33 mm
12:00 15 °C 14.2 °C 1009.4 hPa SE 8 km/h 11.3 km/h 95% 4.83 mm
12:05 14.9 °C 14.2 °C 1009 hPa South 9.7 km/h 14.5 km/h 95% 6.35 mm
12:10 14.9 °C 14.2 °C 1008.7 hPa SE 9.7 km/h 14.5 km/h 95% 5.08 mm
12:15 14.9 °C 14.1 °C 1008.4 hPa SE 11.3 km/h 16.1 km/h 95% 5.08 mm
12:20 14.9 °C 14.1 °C 1008.4 hPa SSE 6.4 km/h 11.3 km/h 95% 3.81 mm
12:25 14.9 °C 14.1 °C 1008.4 hPa SE 3.2 km/h 6.4 km/h 95% 3.3 mm
12:30 14.9 °C 14.1 °C 1008 hPa ESE 8 km/h 8 km/h 95% 2.79 mm
12:35 14.9 °C 14.1 °C 1008 hPa SE 6.4 km/h 12.9 km/h 95% 4.32 mm
12:40 14.8 °C 14.1 °C 1007.7 hPa ESE 11.3 km/h 16.1 km/h 95% 4.32 mm
12:45 14.8 °C 14.1 °C 1007.7 hPa East 12.9 km/h 14.5 km/h 95% 3.56 mm
12:50 14.8 °C 14.1 °C 1007.3 hPa SE 8 km/h 16.1 km/h 95% 1.78 mm
12:55 14.8 °C 14.1 °C 1007.3 hPa ESE 9.7 km/h 14.5 km/h 95% 1.52 mm
13:00 14.9 °C 14.1 °C 1007.3 hPa SE 6.4 km/h 11.3 km/h 95% 1.52 mm
13:05 14.9 °C 14.1 °C 1007 hPa SE 8 km/h 14.5 km/h 95% 1.02 mm
13:10 14.9 °C 14.1 °C 1007 hPa SSE 8 km/h 11.3 km/h 95% 0 mm
13:15 14.9 °C 14.2 °C 1007 hPa SSE 14.5 km/h 14.5 km/h 95% 0 mm
13:20 14.9 °C 14.2 °C 1006.7 hPa ESE 12.9 km/h 16.1 km/h 95% 0 mm
13:25 15 °C 14.2 °C 1006.7 hPa ESE 11.3 km/h 16.1 km/h 95% 0 mm
13:30 14.9 °C 14.2 °C 1006.3 hPa SE 11.3 km/h 14.5 km/h 95% 0 mm
13:35 15 °C 14.2 °C 1006 hPa SE 12.9 km/h 16.1 km/h 95% 0 mm
13:36 15 °C 14.2 °C 1006 hPa ESE 12.9 km/h 16.1 km/h 95% 0 mm
13:41 15 °C 14.2 °C 1006 hPa SE 11.3 km/h 16.1 km/h 95% 0 mm
13:46 15 °C 14.2 °C 1005.6 hPa SE 12.9 km/h 14.5 km/h 95% 0 mm
13:51 15 °C 14.2 °C 1005.6 hPa SE 9.7 km/h 11.3 km/h 95% 0 mm
13:56 15 °C 14.2 °C 1005.3 hPa ESE 11.3 km/h 17.7 km/h 95% 1.02 mm
14:01 15 °C 14.2 °C 1005 hPa ESE 8 km/h 19.3 km/h 95% 1.02 mm
14:06 15 °C 14.2 °C 1003.6 hPa ESE 9.7 km/h 17.7 km/h 95% 1.02 mm
14:11 15.1 °C 14.3 °C 1005 hPa SE 11.3 km/h 16.1 km/h 95% 1.02 mm
14:16 15.1 °C 14.3 °C 1005 hPa ESE 19.3 km/h 19.3 km/h 95% 1.02 mm
14:21 15.1 °C 14.3 °C 1004.3 hPa ESE 17.7 km/h 19.3 km/h 95% 1.02 mm
14:26 15.1 °C 14.3 °C 1004.3 hPa ESE 19.3 km/h 22.5 km/h 95% 1.02 mm
14:31 15.2 °C 14.4 °C 1004.3 hPa ESE 17.7 km/h 22.5 km/h 95% 0 mm
14:36 15.3 °C 14.5 °C 1003.9 hPa SE 14.5 km/h 20.9 km/h 95% 0 mm
14:41 15.3 °C 14.5 °C 1003.9 hPa ESE 9.7 km/h 25.7 km/h 95% 0 mm
14:46 15.3 °C 14.6 °C 1003.9 hPa SE 12.9 km/h 22.5 km/h 95% 0 mm
14:51 15.3 °C 14.5 °C 1003.6 hPa ESE 19.3 km/h 19.3 km/h 95% 0 mm
14:56 15.4 °C 14.6 °C 1003.9 hPa SE 16.1 km/h 22.5 km/h 95% 0 mm
15:02 15.4 °C 14.6 °C 1003.6 hPa ESE 14.5 km/h 20.9 km/h 95% 0 mm
15:07 15.3 °C 14.6 °C 1003.6 hPa ESE 17.7 km/h 24.1 km/h 95% 0 mm
15:12 15.3 °C 14.3 °C 1003.6 hPa ESE 16.1 km/h 22.5 km/h 94% 0 mm
15:17 15.3 °C 14.5 °C 1003.6 hPa ESE 16.1 km/h 22.5 km/h 95% 0 mm
15:22 15.3 °C 14.5 °C 1003.6 hPa ESE 17.7 km/h 24.1 km/h 95% 0 mm
15:27 15.3 °C 14.3 °C 1003.3 hPa ESE 17.7 km/h 22.5 km/h 94% 0 mm
15:32 15.3 °C 14.4 °C 1002.9 hPa ESE 19.3 km/h 25.7 km/h 94% 0 mm
15:37 15.4 °C 14.5 °C 1003.3 hPa SE 17.7 km/h 20.9 km/h 94% 0 mm
15:42 15.6 °C 14.7 °C 1002.9 hPa ESE 24.1 km/h 24.1 km/h 94% 0 mm
15:47 15.7 °C 14.7 °C 1002.9 hPa SSE 14.5 km/h 22.5 km/h 94% 0 mm
15:52 15.7 °C 14.7 °C 1002.9 hPa SE 17.7 km/h 22.5 km/h 94% 0 mm
15:57 15.7 °C 14.7 °C 1002.9 hPa SE 8 km/h 17.7 km/h 94% 0 mm
16:02 15.6 °C 14.7 °C 1002.9 hPa ESE 16.1 km/h 19.3 km/h 94% 0 mm
16:07 15.6 °C 14.6 °C 1002.9 hPa ESE 9.7 km/h 19.3 km/h 94% 0 mm
16:12 15.6 °C 14.6 °C 1002.9 hPa SSE 12.9 km/h 19.3 km/h 94% 0 mm
16:17 15.6 °C 14.6 °C 1002.9 hPa SSE 17.7 km/h 20.9 km/h 94% 0 mm
16:22 15.5 °C 14.6 °C 1002.6 hPa SE 9.7 km/h 17.7 km/h 94% 0 mm
16:27 15.5 °C 14.6 °C 1002.6 hPa SE 14.5 km/h 17.7 km/h 94% 0 mm
16:32 15.5 °C 14.6 °C 1002.6 hPa SSE 22.5 km/h 22.5 km/h 94% 0 mm
16:37 15.5 °C 14.6 °C 1002.6 hPa SE 12.9 km/h 17.7 km/h 94% 0 mm
16:42 15.6 °C 14.6 °C 1002.6 hPa ESE 11.3 km/h 20.9 km/h 94% 0 mm
16:47 15.6 °C 14.7 °C 1002.6 hPa SE 9.7 km/h 24.1 km/h 94% 0 mm
16:52 15.6 °C 14.5 °C 1002.3 hPa SSE 12.9 km/h 29 km/h 93% 0 mm
16:57 15.7 °C 14.6 °C 1001.9 hPa SE 11.3 km/h 20.9 km/h 93% 0 mm
17:02 15.7 °C 14.6 °C 1001.9 hPa SE 9.7 km/h 19.3 km/h 93% 0 mm
17:07 15.7 °C 14.6 °C 1001.9 hPa SSE 12.9 km/h 22.5 km/h 93% 0 mm
17:12 15.7 °C 14.6 °C 1001.9 hPa SSE 14.5 km/h 22.5 km/h 93% 0 mm
17:17 15.7 °C 14.6 °C 1001.9 hPa South 12.9 km/h 24.1 km/h 93% 0 mm
17:22 15.7 °C 14.7 °C 1001.9 hPa SSE 14.5 km/h 20.9 km/h 94% 0 mm
17:27 15.7 °C 14.7 °C 1001.9 hPa SE 16.1 km/h 17.7 km/h 94% 0 mm
17:32 15.7 °C 14.7 °C 1001.6 hPa SSE 12.9 km/h 17.7 km/h 94% 0 mm
17:38 15.7 °C 14.8 °C 1001.6 hPa SSE 12.9 km/h 24.1 km/h 94% 0 mm
17:43 15.7 °C 14.8 °C 1001.6 hPa SSE 11.3 km/h 19.3 km/h 94% 0 mm
17:48 15.7 °C 14.8 °C 1001.9 hPa SE 9.7 km/h 17.7 km/h 94% 0 mm
17:53 15.7 °C 14.8 °C 1001.9 hPa SSE 27.4 km/h 27.4 km/h 94% 0 mm
17:58 15.8 °C 14.9 °C 1001.9 hPa SSE 14.5 km/h 22.5 km/h 94% 0 mm
18:03 15.9 °C 14.9 °C 1001.9 hPa SSE 17.7 km/h 22.5 km/h 94% 0 mm
18:08 15.9 °C 15 °C 1001.9 hPa South 12.9 km/h 17.7 km/h 94% 0 mm
18:13 16 °C 15.1 °C 1001.9 hPa SE 16.1 km/h 22.5 km/h 94% 0 mm
18:18 15.9 °C 15 °C 1001.9 hPa South 17.7 km/h 20.9 km/h 94% 0 mm
18:23 15.9 °C 15 °C 1001.6 hPa SSE 14.5 km/h 29 km/h 94% 0 mm
18:28 16 °C 15.1 °C 1001.6 hPa SW 14.5 km/h 24.1 km/h 94% 0 mm
18:33 16 °C 14.9 °C 1001.9 hPa SW 11.3 km/h 16.1 km/h 93% 0 mm
18:38 15.8 °C 14.7 °C 1001.9 hPa South 8 km/h 24.1 km/h 93% 26.67 mm
18:43 15.5 °C 14.4 °C 1001.9 hPa SW 17.7 km/h 25.7 km/h 93% 4.06 mm
18:48 15.3 °C 14.3 °C 1001.9 hPa SW 19.3 km/h 25.7 km/h 94% 1.78 mm
18:53 15.1 °C 14.2 °C 1001.9 hPa SSW 11.3 km/h 17.7 km/h 94% 1.02 mm
18:58 15.1 °C 14.2 °C 1002.3 hPa SSW 11.3 km/h 17.7 km/h 94% 0 mm
19:03 15.1 °C 14.2 °C 1002.3 hPa SW 17.7 km/h 17.7 km/h 94% 0 mm
19:08 15.1 °C 14.3 °C 1002.3 hPa South 8 km/h 17.7 km/h 95% 0 mm
19:13 15.1 °C 14.3 °C 1002.3 hPa WSW 6.4 km/h 14.5 km/h 95% 0 mm
19:18 15.1 °C 14.3 °C 1002.6 hPa SW 12.9 km/h 17.7 km/h 95% 0 mm
19:23 15.1 °C 14.2 °C 1002.6 hPa SW 12.9 km/h 20.9 km/h 94% 0 mm
19:28 15.1 °C 14.2 °C 1002.6 hPa SW 11.3 km/h 14.5 km/h 94% 0 mm
19:33 15.1 °C 14.1 °C 1002.6 hPa West 17.7 km/h 19.3 km/h 94% 0 mm
19:38 15.1 °C 14.1 °C 1002.3 hPa SSW 9.7 km/h 19.3 km/h 94% 0 mm
19:43 15 °C 14.1 °C 1002.6 hPa SSW 14.5 km/h 20.9 km/h 94% 0 mm
19:48 14.9 °C 14 °C 1002.3 hPa SW 22.5 km/h 22.5 km/h 94% 0 mm
19:53 14.9 °C 13.9 °C 1002.3 hPa South 11.3 km/h 17.7 km/h 94% 0 mm
19:58 14.9 °C 13.9 °C 1002.3 hPa WSW 9.7 km/h 19.3 km/h 94% 0 mm
20:03 14.9 °C 13.9 °C 1002.3 hPa WSW 8 km/h 20.9 km/h 94% 0 mm
20:09 14.8 °C 14.1 °C 1002.3 hPa WSW 17.7 km/h 20.9 km/h 95% 0 mm
20:14 14.8 °C 14.1 °C 1002.6 hPa WSW 9.7 km/h 11.3 km/h 95% 0 mm
20:19 14.8 °C 14.1 °C 1002.6 hPa SW 11.3 km/h 22.5 km/h 95% 0 mm
20:24 14.6 °C 13.7 °C 1002.9 hPa NNW 27.4 km/h 27.4 km/h 94% 18.03 mm
20:29 13.6 °C 12.3 °C 1003.3 hPa WNW 30.6 km/h 30.6 km/h 92% 3.05 mm
20:34 12.9 °C 11.8 °C 1003.3 hPa WNW 20.9 km/h 25.7 km/h 93% 6.86 mm
20:39 12.5 °C 11.6 °C 1002.6 hPa WNW 14.5 km/h 17.7 km/h 94% 3.3 mm
20:44 12.3 °C 11.6 °C 1002.9 hPa WNW 8 km/h 20.9 km/h 95% 2.79 mm
20:49 12.1 °C 11.3 °C 1003.3 hPa WNW 9.7 km/h 22.5 km/h 95% 2.03 mm
20:54 12 °C 11.2 °C 1003.3 hPa WNW 11.3 km/h 17.7 km/h 95% 2.03 mm
20:59 11.9 °C 11.1 °C 1002.9 hPa WNW 8 km/h 16.1 km/h 95% 10.67 mm
21:04 11.8 °C 11.1 °C 1003.3 hPa West 9.7 km/h 14.5 km/h 95% 3.3 mm
21:09 11.7 °C 10.9 °C 1003.6 hPa WNW 11.3 km/h 16.1 km/h 95% 2.29 mm
21:14 11.7 °C 10.9 °C 1003.6 hPa West 9.7 km/h 16.1 km/h 95% 1.27 mm
21:19 11.6 °C 10.8 °C 1003.6 hPa WNW 6.4 km/h 12.9 km/h 95% 1.02 mm
21:24 11.4 °C 10.7 °C 1003.6 hPa West 8 km/h 16.1 km/h 95% 0 mm
21:29 11.3 °C 10.6 °C 1003.6 hPa WNW 8 km/h 16.1 km/h 95% 0 mm
21:34 11.2 °C 10.4 °C 1003.6 hPa West 8 km/h 16.1 km/h 95% 0 mm
21:39 11.1 °C 10.3 °C 1003.6 hPa WSW 11.3 km/h 16.1 km/h 95% 0 mm
21:44 10.9 °C 10.2 °C 1003.6 hPa West 6.4 km/h 16.1 km/h 95% 0 mm
21:50 10.9 °C 10.1 °C 1003.9 hPa WNW 12.9 km/h 17.7 km/h 95% 0 mm
21:55 10.8 °C 10.1 °C 1003.9 hPa WNW 11.3 km/h 14.5 km/h 95% 0 mm
21:59 10.8 °C 10.1 °C 1003.9 hPa West 4.8 km/h 9.7 km/h 95% 0 mm
22:05 10.8 °C 10.1 °C 1004.3 hPa West 9.7 km/h 16.1 km/h 95% 0 mm
22:10 10.8 °C 10 °C 1003.9 hPa West 8 km/h 22.5 km/h 95% 0 mm
22:15 10.7 °C 9.9 °C 1004.3 hPa WNW 17.7 km/h 27.4 km/h 95% 0 mm
22:20 10.6 °C 9.6 °C 1004.3 hPa WNW 12.9 km/h 20.9 km/h 94% 0 mm
22:25 10.4 °C 9.5 °C 1004.3 hPa WNW 17.7 km/h 22.5 km/h 94% 0 mm
22:30 10.4 °C 9.6 °C 1004.6 hPa WNW 12.9 km/h 19.3 km/h 95% 0 mm
22:35 10.3 °C 9.5 °C 1004.6 hPa West 12.9 km/h 24.1 km/h 95% 0 mm
22:40 10.1 °C 9.2 °C 1005 hPa WNW 22.5 km/h 29 km/h 94% 0 mm
22:45 9.9 °C 9 °C 1005 hPa WNW 16.1 km/h 22.5 km/h 94% 0 mm
22:50 9.7 °C 8.8 °C 1005.3 hPa West 8 km/h 25.7 km/h 94% 0 mm
22:55 9.4 °C 8.4 °C 1005.3 hPa WNW 11.3 km/h 24.1 km/h 94% 0 mm
23:00 9 °C 8.2 °C 1005.6 hPa West 14.5 km/h 20.9 km/h 95% 0 mm
23:05 8.8 °C 8.1 °C 1005.6 hPa WNW 16.1 km/h 19.3 km/h 95% 0 mm
23:10 8.7 °C 7.9 °C 1005.6 hPa West 20.9 km/h 20.9 km/h 95% 0 mm
23:15 8.5 °C 7.7 °C 1005.6 hPa WNW 14.5 km/h 25.7 km/h 95% 0 mm
23:20 8.3 °C 7.6 °C 1006 hPa WNW 8 km/h 24.1 km/h 95% 0 mm
23:25 8.2 °C 7.5 °C 1006 hPa West 14.5 km/h 22.5 km/h 95% 0 mm
23:30 8 °C 7.2 °C 1006.3 hPa WNW 12.9 km/h 24.1 km/h 95% 0 mm
23:36 7.7 °C 6.9 °C 1006.3 hPa WNW 16.1 km/h 20.9 km/h 95% 0 mm
23:41 7.4 °C 6.7 °C 1006.7 hPa NW 12.9 km/h 22.5 km/h 95% 0 mm
23:46 7.2 °C 6.6 °C 1006.7 hPa West 20.9 km/h 20.9 km/h 96% 0 mm
23:51 6.9 °C 6.3 °C 1006.7 hPa WSW 11.3 km/h 20.9 km/h 96% 0 mm
23:56 6.8 °C 6.2 °C 1006.7 hPa WNW 19.3 km/h 25.7 km/h 96% 0 mm
Compliments of Weather Underground